Regional Weather Roundup
Issued by NWS

Home | Current Version | Previous Version | Text Only | Print | Product List | Glossary Off
Versions: 1 2 3 4 5 6 7 8 9 10 11 12 13 14 15 16 17 18 19 20 21 22 23 24 25 26 27 28 29 30 31 32 33 34 35 36 37 38 39 40 41 42 43 44 45 46 47 48 49 50

000
ASUS43 KDTX 191901
RWRMI
MICHIGAN HOURLY REGIONAL WEATHER ROUNDUP
NATIONAL WEATHER SERVICE DETROIT/PONTIAC MI
300 PM EDT SAT APR 19 2014

NOTE: "FAIR" INDICATES FEW OR NO CLOUDS BELOW 12,000 FEET WITH NO
SIGNIFICANT WEATHER AND/OR OBSTRUCTION TO VISIBILITY.

MIZ047>049-052>055-059>063-066>070-074>076-081>083-192000-
SOUTHEAST LOWER MICHIGAN

CITY           SKY/WX    TMP DP  RH WIND       PRES   REMARKS
ADRIAN         SUNNY     55  29  36 E8        30.40F
ALMA           SUNNY     53  32  44 E7        30.40F
ANN ARBOR      SUNNY     56  22  26 E9        30.40F
BAD AXE        SUNNY     47  27  45 NE13      30.45F
CARO           SUNNY     54  29  39 SE8       30.42F
DETROIT CITY   SUNNY     54  27  35 E8        30.42F
DETROIT        MOSUNNY   54  20  26 E8G16     30.42F
FLINT          SUNNY     56  29  35 NE12      30.40F
GROSSE ILE     SUNNY     46  36  66 S13       30.41F
HILLSDALE      SUNNY     56  28  34 E10G17    30.37F
HOWELL         SUNNY     55  20  26 E8        30.38F

CITY           SKY/WX    TMP DP  RH WIND       PRES   REMARKS
JACKSON        SUNNY     56  26  31 VRB7      30.37F
LAMBERTVILLE   SUNNY     52  32  46 E9G16     30.43S
LANSING        SUNNY     56  23  27 E12       30.38F
LAPEER         FAIR      51  29  43 E7        30.42F
MASON          SUNNY     56  26  30 E10       30.38F
MONROE         SUNNY     50  30  46 SE10G16   30.41F
MT. CLEMENS    MOSUNNY   53  26  35 NE10      30.40F
PONTIAC        MOSUNNY   53  26  35 NE12      30.40F
PORT HOPE        N/A     39  33  79 NE7       30.46F WCI  34
PORT HURON     SUNNY     50  30  46 NE8       30.42F
TRI CITIES     SUNNY     51  36  56 NE14G20   30.42F
TROY           SUNNY     53  26  34 E7        30.42F
SAGINAW HB     SUNNY     52  36  54 N12G17    30.41F
YPSILANTI      SUNNY     58  22  24 E12       30.41F
$$
MIZ043>046-050>051-056>058-064>065-071>073-077>080-192000-
SOUTHWEST LOWER MICHIGAN

CITY           SKY/WX    TMP DP  RH WIND       PRES   REMARKS
BATTLE CREEK   SUNNY     57  26  30 SE9       30.36F
BENTON HARBOR  MOSUNNY   61  35  37 SE13G21   30.33F
BIG RAPIDS     MOSUNNY   54  28  36 SE14      30.36F
COLDWATER      SUNNY     57  25  29 E9        30.36F
FREMONT        FAIR      56  24  29 SE9G16    30.34F
HOLLAND        PTSUNNY   60  30  32 E12G21    30.34F
GRAND RAPIDS   PTSUNNY   58  30  34 SE14      30.36F
IONIA          FAIR      55  28  34 E12       30.37F
KALAMAZOO      MOSUNNY   60  28  29 SE7       30.36F
LUDINGTON      MOSUNNY   57  24  28 S10       30.33F
MARSHALL       SUNNY     57  28  32 SE8       30.36F
MOUNT PLEASANT SUNNY     52  31  43 E8G17     30.39F
MUSKEGON       CLOUDY    59  26  28 SE16      30.34F
SOUTH HAVEN    PTSUNNY   61  31  31 SE9G16    30.33F
$$
MIZ016>042-192000-
NORTHERN LOWER MICHIGAN

CITY           SKY/WX    TMP DP  RH WIND       PRES   REMARKS
ALPENA         MOSUNNY   41  30  65 SE13      30.46F
BEAVER ISLAND  PTSUNNY   45  29  55 E8        30.40F
BELLAIRE       MOSUNNY   57  22  26 S10       30.36F
CADILLAC       MOSUNNY   53  28  38 E12G20    30.35S
CHARLEVOIX     PTSUNNY   54  25  33 E12       30.39F
FRANKFORT      PTSUNNY   49  29  46 NW3       30.35F
GAYLORD        MOSUNNY   52  23  32 SE14G21   30.36F
GRAYLING       SUNNY     54  24  31 SE14G23   30.38F
HARBOR SPRINGS MOSUNNY   54  27  35 E8        30.37F
HOUGHTON LAKE  SUNNY     52  26  36 SE12G21   30.38F
MANISTEE       PTSUNNY   55  21  26 SE6       30.34F
OSCODA         SUNNY     42  31  65 E10       30.47F
PELLSTON       MOSUNNY   51  27  39 E13G20    30.39F
ROGERS CITY    MOSUNNY   44  32  63 E12       30.46F
TRAVERSE CITY  PTSUNNY   58  23  26 VRB7      30.34F
$$
MIZ007>008-015-192000-
EASTERN UPPER MICHIGAN

CITY           SKY/WX    TMP DP  RH WIND       PRES   REMARKS
KINROSS        PTSUNNY   39  28  65 SE16      30.43F WCI  30
MACKINAC ISLAN MOSUNNY   37  29  73 E10G21    30.43F WCI  29
NEWBERRY       CLOUDY    41  24  52 SE13      30.39F
S. S. MARIE    CLOUDY    40  21  46 SE9       30.44F WCI  34
$$
MIZ004>006-011>014-085-192000-
CENTRAL UPPER MICHIGAN

CITY           SKY/WX    TMP DP  RH WIND       PRES   REMARKS
MANISTIQUE     PTSUNNY   42  31  66 SE12      30.38F
ESCANABA       MOSUNNY   39  30  70 SE13      30.36F WCI  32
MENOMINEE      SUNNY     43  28  56 E12       30.34F
SAWYER-GWINN   SUNNY     43  25  49 S24       30.29F
$$
MIZ001>003-009>011-084-192000-
WESTERN UPPER MICHIGAN

CITY           SKY/WX    TMP DP  RH WIND       PRES   REMARKS
IRON MOUNTAIN  PTSUNNY   47  24  40 S17G25    30.25F
HOUGHTON       CLOUDY    35  28  75 E17       30.15F WCI  25
COPPER HARBOR    N/A     38  28  67 S16G30    30.23F WCI  29
IRONWOOD       CLOUDY    50  27  40 S22G33    30.01F
$$

ABBREVIATIONS USED IN REMARKS
   TC - TEMPERATURE IN CELSIUS
  WCI - WIND CHILL INDEX
   HX - HEAT INDEX
  VSB - VISIBILITY




USA.gov is the U.S. government's official web portal to all federal, state and local government web resources and services.